Wind_Speed
34 34 34 34 34 34 34 34 34 35 35 35 35 36 37 38 38 39 40 41 42 42 43 44 44 45 45 46 46 47 47 48 49 49 50 51 51 52 53 54 54 55 56 56 57 57 58 58 58 59 59 59 60 60 60 60 60 60 60 61 61 61 62 62 62 62 63 63 63 63 63 63 62 61 60 59 59 59 60 60 61 61 62 62 62 61
34 34 34 34 34 34 34 35 35 35 36 36 37 37 38 39 40 40 41 42 43 43 44 45 45 46 47 47 48 48 49 50 50 51 52 52 53 54 54 55 56 56 57 57 58 58 58 59 59 60 60 60 61 61 61 61 62 62 62 62 62 62 62 63 63 63 63 64 64 65 65 65 64 63 61 60 59 59 59 60 62 63 63 63 63 62
34 34 34 34 34 35 35 35 36 36 37 37 38 39 40 40 41 42 43 44 44 45 46 46 47 48 48 49 50 50 51 52 53 53 54 55 55 56 56 57 57 57 58 58 58 59 59 59 60 60 61 61 61 62 62 62 62 62 63 63 63 63 63 63 63 64 64 64 65 65 66 66 65 64 63 62 61 60 60 61 62 63 64 64 64 63
34 34 35 35 35 35 35 36 37 37 38 39 40 41 42 42 43 44 45 46 46 47 48 48 49 50 50 51 52 53 53 54 55 56 56 57 57 57 58 58 58 58 58 58 59 59 59 59 60 60 61 61 62 62 62 62 62 63 63 63 63 63 63 63 64 64 64 64 64 65 65 66 66 66 65 64 62 61 61 61 63 64 65 65 65 64
34 35 35 35 35 36 36 37 37 38 39 40 41 42 43 44 45 46 47 47 48 49 49 50 51 51 52 53 54 55 55 56 57 57 58 58 59 59 59 59 59 58 58 58 58 58 59 59 60 60 61 61 62 62 62 62 62 62 62 62 62 62 62 63 63 63 63 64 64 64 65 65 66 67 66 65 64 63 62 62 63 64 65 66 65 65
35 35 36 36 36 36 37 37 38 39 41 42 43 44 45 46 47 47 48 49 49 50 51 51 52 53 54 55 56 56 57 58 58 59 59 59 60 60 59 59 59 58 58 57 57 57 58 59 59 60 60 61 61 61 61 61 61 61 61 61 61 61 61 61 61 62 62 62 62 63 63 64 65 66 67 66 65 64 64 64 64 64 65 66 66 65
35 36 36 36 37 37 38 39 40 41 42 43 44 45 46 47 47 48 49 50 51 51 52 53 54 54 55 57 58 58 59 60 60 60 61 61 60 60 60 59 58 57 57 56 56 57 57 58 58 59 59 59 59 59 59 59 58 58 58 59 59 59 59 60 60 60 60 60 61 61 62 62 63 65 66 66 66 65 65 64 64 65 65 65 66 66
36 36 37 37 38 38 39 39 41 42 43 44 45 46 47 48 48 49 50 51 52 53 53 54 55 56 57 58 59 60 61 61 61 61 61 61 61 60 59 58 57 56 56 55 55 56 56 56 57 57 57 56 56 56 55 55 55 55 55 56 56 57 57 58 58 58 59 59 59 59 59 60 61 62 64 65 66 66 65 65 65 65 65 65 66 66
37 37 38 38 38 39 40 41 42 43 44 45 47 47 48 49 50 50 51 52 53 54 55 56 57 58 59 60 60 61 62 62 62 61 61 61 60 60 58 57 56 55 55 54 54 54 54 54 54 54 53 53 52 52 51 51 51 52 52 53 54 55 55 56 57 57 58 58 58 58 58 58 59 60 61 63 64 65 65 65 65 65 66 66 65 66
38 38 39 39 40 40 41 42 43 44 45 46 48 49 50 51 52 52 53 54 54 56 57 58 59 60 61 61 62 62 62 62 62 61 60 60 59 58 57 55 54 54 53 53 53 53 52 52 51 50 49 49 48 48 47 48 48 49 50 51 52 53 54 55 56 57 57 58 58 57 57 57 57 57 58 60 62 63 64 64 65 65 66 66 66 66
38 39 39 40 41 42 42 43 45 46 46 48 49 50 51 52 53 54 55 56 57 57 59 60 61 61 62 63 63 62 61 61 61 60 59 58 57 56 55 54 53 52 52 52 52 51 50 48 47 46 45 44 44 44 44 45 46 47 48 49 50 51 52 54 55 56 56 57 57 57 57 56 56 56 56 57 59 61 62 63 64 65 65 66 66 66
39 40 41 41 42 43 44 45 46 47 48 49 50 51 53 54 55 56 57 58 59 60 61 61 62 62 62 62 62 62 61 60 60 59 59 58 56 55 53 52 51 51 50 50 50 49 47 45 44 43 42 41 41 41 42 43 44 45 46 47 48 48 49 50 51 52 53 54 55 55 55 55 55 54 55 55 57 58 60 61 62 63 65 65 65 65
40 41 42 42 43 44 45 46 47 48 49 50 51 53 54 55 56 57 58 60 61 61 62 63 63 63 63 62 61 61 60 60 59 59 58 57 55 54 52 52 51 50 50 49 48 47 44 42 41 40 39 38 39 39 40 41 42 42 43 43 44 44 45 46 47 48 48 50 50 51 52 52 53 53 53 54 55 56 58 59 61 62 63 64 65 65
41 42 43 43 44 45 46 47 48 49 50 51 53 54 55 56 57 58 60 61 62 62 63 63 63 63 62 61 60 60 59 59 59 58 57 56 54 53 51 51 51 50 49 48 47 45 42 40 38 38 37 37 37 38 38 38 39 39 40 40 41 42 42 43 44 44 45 46 46 47 48 49 49 50 51 52 53 55 56 58 59 61 62 63 64 65
42 43 43 44 45 46 47 48 49 50 51 52 54 55 56 57 58 59 60 61 62 62 63 63 63 63 61 60 59 58 58 58 58 57 56 55 53 52 50 50 51 50 49 47 46 43 40 38 37 36 36 36 36 36 36 36 37 37 38 38 39 40 41 41 42 42 43 43 44 45 45 46 47 47 48 49 51 53 55 57 58 60 61 62 63 64
42 43 44 45 46 47 48 49 50 51 52 53 54 55 56 57 58 59 60 60 61 62 62 62 62 62 62 61 59 57 56 57 57 56 55 54 53 51 50 50 51 50 49 46 44 42 39 37 36 35 35 35 35 35 35 35 35 36 36 37 38 39 40 41 41 41 42 42 42 43 43 44 45 45 46 47 49 51 54 56 57 59 60 61 62 63
43 44 45 45 46 47 48 49 50 51 52 53 54 55 56 57 58 59 59 59 59 60 60 60 61 61 61 61 59 57 55 55 55 55 54 53 52 51 50 50 50 50 48 46 43 41 38 36 35 35 35 34 34 34 34 34 34 35 36 37 38 39 40 40 40 40 41 41 41 42 43 43 44 44 44 45 47 49 52 54 56 58 59 60 61 62
43 44 45 46 46 47 48 49 50 51 52 53 54 55 56 56 57 57 57 57 57 57 58 59 59 60 60 59 59 57 55 54 54 54 54 53 52 51 50 49 49 48 47 44 42 39 37 36 35 35 35 34 34 34 34 34 34 35 36 37 38 39 39 40 40 40 40 40 40 41 41 42 42 42 42 43 45 47 50 52 55 57 58 59 60 61
43 44 45 46 46 47 48 48 50 51 52 53 53 54 55 55 55 55 55 55 55 56 56 57 58 59 59 58 57 56 54 53 53 54 54 54 52 51 49 49 48 47 45 43 40 38 37 36 35 35 34 34 34 34 34 34 35 36 37 37 38 38 39 39 39 39 38 38 39 39 39 39 39 39 40 41 42 44 47 50 53 55 57 58 59 60
43 44 44 45 46 47 47 48 49 50 51 52 52 53 53 53 53 53 53 53 54 55 56 56 57 57 57 57 56 55 53 52 53 54 54 53 52 51 49 48 47 45 43 41 39 37 36 36 35 35 34 34 34 34 34 34 35 36 37 37 37 37 37 37 37 37 37 37 37 37 37 38 38 38 38 39 40 42 44 47 50 53 55 57 58 59
43 44 44 45 46 47 47 48 48 49 49 50 51 51 51 51 51 51 51 52 53 54 55 56 56 56 56 55 54 53 52 51 52 53 54 53 52 50 48 46 45 44 42 39 37 36 36 36 35 35 34 34 33 33 33 33 34 35 35 36 35 35 35 35 35 35 35 35 35 36 36 37 37 37 37 38 39 40 42 44 47 50 53 55 57 58
43 43 44 44 45 46 46 46 47 47 47 48 48 48 49 49 49 50 50 51 52 53 54 54 54 54 54 53 53 52 51 50 50 51 53 53 52 49 47 45 44 43 41 38 37 36 35 36 35 35 34 33 33 32 32 32 33 33 34 34 33 33 32 32 32 33 33 34 34 35 35 36 36 36 36 37 37 38 40 41 44 46 49 52 55 56
42 43 43 43 44 44 44 45 45 45 45 45 45 46 46 47 47 48 49 50 51 52 52 53 53 53 52 52 51 50 49 49 49 50 51 51 50 49 46 45 43 42 40 39 37 37 36 36 35 35 34 33 32 31 31 31 32 32 32 32 31 31 31 30 31 31 32 33 34 34 35 35 34 34 35 35 36 37 38 39 41 43 46 49 52 54
41 42 42 42 42 42 43 43 43 43 43 43 43 44 44 45 45 46 47 48 49 50 51 52 52 52 51 50 49 49 48 47 47 48 49 49 49 47 45 44 43 42 41 39 38 38 37 37 36 35 34 32 31 31 31 31 31 31 31 31 30 29 29 29 29 30 31 32 33 33 34 34 33 33 33 33 34 35 36 37 39 40 42 45 48 51
40 40 40 40 40 40 40 40 40 40 40 40 41 42 42 43 44 45 46 47 47 48 49 50 50 49 49 48 48 47 46 46 45 46 47 47 47 46 44 43 42 42 41 40 39 38 38 37 36 34 33 32 31 31 31 31 31 31 30 30 29 28 28 28 28 29 30 31 32 32 33 33 33 32 32 32 32 33 34 35 36 37 39 41 44 48
39 39 39 38 38 38 38 37 37 37 37 38 39 40 41 42 43 44 44 45 45 46 47 48 48 48 47 47 46 45 45 44 44 44 45 46 46 45 43 42 41 41 41 40 39 38 38 37 35 34 33 32 31 31 30 30 30 30 30 29 28 27 27 27 27 28 29 30 31 31 32 32 32 32 32 31 31 31 32 32 34 35 36 38 41 44
38 37 37 36 36 35 35 35 34 35 35 36 37 38 40 41 41 42 42 43 43 44 45 46 46 47 46 46 45 44 44 43 43 43 43 44 44 44 43 41 41 41 41 40 39 38 37 37 35 34 33 32 31 31 30 30 30 29 29 28 27 27 27 27 27 28 29 30 30 31 31 31 31 31 31 31 30 30 30 31 31 32 33 34 37 41
36 35 35 35 34 34 33 33 33 33 34 35 36 37 38 39 39 40 40 41 42 42 43 44 45 45 45 45 44 44 43 42 41 42 42 43 43 43 42 41 41 41 41 40 39 37 36 36 35 34 33 32 31 31 30 30 29 28 28 27 27 26 26 27 27 28 29 30 30 31 31 31 31 30 30 30 30 30 29 29 29 30 30 31 33 37
34 34 34 33 33 32 32 32 32 32 33 34 34 35 36 36 37 38 39 40 40 41 42 43 43 44 44 45 44 43 42 40 40 41 41 42 42 42 42 41 41 41 41 41 39 37 35 35 35 35 34 33 32 31 30 28 27 26 25 25 25 25 25 26 27 28 29 30 31 31 31 30 30 30 29 29 29 29 28 28 28 28 27 27 29 33
33 32 32 31 31 31 31 31 31 31 32 33 33 34 35 35 35 36 37 38 39 40 41 42 42 43 44 44 45 44 42 40 39 40 40 41 41 41 41 41 40 40 41 41 41 39 36 34 33 34 35 34 32 30 28 26 24 23 23 23 23 23 23 24 25 27 28 29 30 30 30 30 30 29 29 28 28 28 27 27 26 25 24 24 27 31
31 30 30 29 29 29 29 30 30 31 31 32 32 32 33 34 34 35 36 37 38 39 40 41 41 42 42 43 44 44 42 40 39 39 40 40 40 41 40 40 40 39 39 40 41 41 39 36 34 34 34 34 32 29 26 23 22 21 21 21 21 21 21 22 23 25 26 27 28 29 29 29 29 28 28 28 27 27 26 25 24 23 22 23 25 28
30 29 28 28 28 28 28 29 29 30 30 31 31 31 32 32 33 34 35 37 38 39 40 40 41 41 41 41 42 42 42 40 39 39 39 40 40 40 39 39 39 38 38 38 39 40 41 40 38 36 35 34 32 28 25 23 22 22 22 21 21 20 20 21 23 24 25 25 26 26 27 27 27 27 27 27 26 26 25 24 23 22 21 22 24 26
29 28 28 28 28 28 28 29 29 29 30 30 30 30 31 32 33 34 35 36 37 38 39 40 41 41 41 41 40 40 40 39 39 39 39 39 39 39 39 38 38 38 38 38 38 39 40 40 39 38 36 34 32 29 27 25 24 24 24 23 22 22 22 23 24 25 25 25 25 25 25 26 26 26 26 25 25 25 24 23 21 21 21 21 22 24
28 28 27 27 27 27 28 28 29 29 29 29 29 30 30 31 32 33 35 36 37 38 38 39 39 40 40 40 40 40 39 38 38 38 38 38 38 39 38 37 37 37 37 37 37 37 38 38 38 38 37 35 33 31 29 29 28 27 26 25 25 24 24 24 26 27 27 26 25 25 24 24 25 25 24 24 24 23 23 22 21 21 20 19 19 22
28 27 27 27 27 27 27 28 28 28 28 28 29 29 30 31 32 33 34 35 36 37 38 38 38 38 38 39 39 39 39 38 38 38 38 38 38 38 37 36 36 36 36 36 36 36 36 36 36 36 37 36 35 33 32 31 31 30 29 27 26 24 24 25 27 28 28 27 26 25 24 24 24 24 23 23 23 22 22 22 22 21 18 16 17 20
28 28 27 27 27 27 27 27 27 28 28 28 28 29 29 30 31 32 33 34 35 36 37 37 37 37 37 37 37 38 38 38 38 37 37 37 37 37 36 35 35 34 34 34 34 35 35 35 35 35 36 37 37 36 35 34 33 32 31 29 26 24 23 24 26 28 29 28 27 26 25 24 23 23 23 22 22 21 22 23 24 21 16 13 15 19
29 28 28 28 28 28 28 28 27 27 27 28 28 28 29 30 31 32 33 34 34 35 36 36 36 36 36 36 36 37 38 38 38 37 37 37 36 36 36 35 34 33 33 33 33 33 34 34 35 35 36 37 38 38 38 37 36 35 33 31 27 24 22 23 25 28 29 30 29 27 25 24 23 23 22 21 21 21 23 26 26 22 15 10 11 17
29 29 28 28 28 28 28 28 28 27 28 28 28 29 29 30 31 31 32 33 34 35 35 35 36 35 35 35 35 36 37 37 37 37 37 36 36 36 35 34 33 32 31 31 31 32 33 34 35 36 37 37 38 39 39 39 38 38 36 33 29 26 24 24 25 28 30 30 30 28 26 24 23 22 21 21 20 22 24 27 27 24 18 11 8 12
29 29 29 28 28 28 28 28 28 28 28 28 28 29 29 30 31 31 32 33 34 34 35 35 35 35 34 34 34 35 35 36 36 37 36 36 36 35 35 34 32 31 30 30 30 31 31 33 34 35 37 38 39 39 40 40 40 40 39 36 32 28 25 24 26 28 29 30 30 28 26 24 23 22 21 20 21 22 25 25 25 24 22 17 12 8
29 29 29 29 29 29 29 29 29 29 29 29 29 30 30 30 31 31 32 33 33 34 34 35 34 34 33 33 33 33 34 35 35 36 36 36 35 35 34 33 32 32 31 30 30 31 31 32 34 35 36 38 39 40 41 40 40 40 40 39 36 32 27 26 26 27 29 30 29 28 26 24 23 21 20 20 21 22 23 23 22 22 22 22 20 16
29 29 29 29 29 29 29 29 29 29 29 29 30 30 31 31 32 32 32 33 33 33 34 34 34 34 33 32 31 32 33 34 34 35 35 35 35 34 34 33 33 32 32 32 32 32 32 33 35 36 37 39 40 41 42 41 41 40 40 40 38 34 30 27 27 27 28 29 28 27 26 24 23 21 20 20 20 21 21 20 19 18 19 21 22 21
30 29 29 29 29 29 29 29 29 29 29 29 30 31 31 32 32 33 33 33 33 34 34 34 34 34 33 32 31 31 31 32 33 34 34 34 34 34 33 33 32 32 32 33 33 34 34 35 36 37 38 40 41 42 42 42 41 40 39 38 38 36 32 29 27 27 28 28 27 26 25 24 23 21 20 19 19 20 19 18 16 16 16 18 20 21
30 30 29 29 29 29 29 29 29 29 29 30 30 31 32 32 33 33 33 33 33 34 34 34 34 33 33 32 31 30 30 30 31 32 33 33 33 33 32 32 32 32 32 33 34 35 36 36 37 38 39 40 41 42 42 41 40 38 37 36 36 35 34 31 28 27 27 27 26 24 23 23 22 21 20 19 18 18 18 16 15 14 14 15 18 20
30 30 29 29 29 29 29 29 29 29 30 30 31 31 32 33 33 33 33 33 33 34 34 34 34 33 32 31 31 30 29 29 29 29 30 31 31 31 31 31 31 32 32 33 34 36 37 37 38 38 39 40 41 41 40 39 38 36 35 34 33 33 32 32 30 28 27 26 25 23 23 22 22 21 19 18 18 17 17 16 14 13 13 14 16 19
30 30 29 29 29 29 29 29 30 30 30 31 31 31 32 33 33 33 33 34 34 33 33 33 33 33 32 31 30 30 29 29 28 28 28 28 29 29 30 30 30 31 32 33 35 36 37 38 38 38 38 38 38 38 38 37 36 34 33 31 31 31 31 31 30 28 27 26 24 23 22 22 22 20 19 17 17 16 16 16 15 13 13 13 15 18
30 29 29 29 29 29 29 30 30 30 31 31 31 32 32 33 33 33 34 34 34 33 33 33 33 32 32 31 30 30 30 29 28 28 27 27 27 28 28 29 30 31 32 34 35 36 37 38 38 38 38 37 37 36 35 34 34 33 31 30 29 29 29 29 28 27 26 24 24 23 22 22 21 20 19 17 16 15 16 15 15 14 13 13 15 16
29 29 29 29 29 29 29 30 30 30 31 31 32 32 33 33 33 34 34 34 33 33 33 32 32 31 31 30 30 30 30 30 30 30 29 29 28 28 29 29 30 31 33 34 35 35 36 37 37 37 37 37 36 35 34 33 32 32 31 29 29 28 28 28 27 26 24 23 23 22 22 22 21 20 19 17 15 15 15 15 14 14 14 14 15 16
29 29 29 29 29 29 29 30 30 31 31 32 32 32 33 33 34 34 34 34 33 33 32 32 32 31 30 30 29 29 30 30 31 31 31 31 31 31 31 31 31 32 33 34 35 35 36 36 36 36 36 36 36 35 35 34 33 32 31 30 29 28 28 27 27 25 24 23 22 21 21 21 21 21 19 17 15 13 13 14 14 14 14 13 14 15
29 29 29 29 29 29 29 30 30 31 32 32 33 33 33 33 33 33 33 33 33 33 32 32 32 31 30 29 29 29 29 30 31 32 32 33 33 33 33 33 33 33 33 34 34 35 36 36 36 36 36 37 37 37 36 36 35 34 33 32 30 29 28 27 26 25 24 22 21 20 20 20 20 20 20 18 15 12 12 13 13 14 13 12 12 13
29 30 30 30 30 30 30 30 31 31 32 33 33 33 33 33 33 33 33 32 32 32 32 31 31 31 30 30 29 29 30 30 31 32 33 33 34 34 34 34 34 34 34 34 35 35 36 37 37 37 37 38 38 38 38 38 37 36 35 33 31 29 28 27 26 25 24 22 21 19 18 18 18 19 19 18 15 12 11 11 13 13 12 11 11 12
30 30 30 30 30 30 30 31 31 32 32 33 33 33 33 33 33 32 32 32 31 31 31 31 31 31 30 30 30 30 30 31 31 32 33 33 34 35 35 35 36 36 36 36 37 37 38 39 39 38 37 37 38 39 39 38 38 36 35 33 30 28 26 25 25 24 24 22 20 19 18 17 17 18 18 17 15 12 10 10 11 12 12 10 10 11
Wind_Direction
306 306 306 307 307 307 306 306 306 306 305 305 304 304 304 303 303 302 302 301 301 300 299 299 298 298 298 298 297 297 298 298 298 298 298 298 298 298 298 298 298 298 298 298 297 297 297 296 296 296 295 295 294 293 292 291 290 288 286 285 283 281 279 277 275 274 272 270 269 268 266 265 264 262 261 261 260 259 257 255 253 253 252 252 253 254
307 308 308 308 308 308 308 307 306 306 305 305 304 303 302 302 301 301 300 300 300 299 299 299 299 298 298 298 298 298 298 299 299 299 299 299 299 299 299 299 299 299 299 299 299 298 298 298 297 297 296 296 295 295 294 293 292 290 289 287 285 283 281 279 277 275 273 271 269 268 267 266 264 263 261 260 259 258 256 254 252 252 252 252 252 253
308 308 308 308 308 308 307 307 306 305 305 304 303 303 302 302 301 301 301 300 300 300 300 300 300 300 300 300 300 300 300 300 300 300 300 300 301 301 301 301 301 300 300 300 300 299 299 298 298 298 297 297 296 296 295 294 293 291 290 288 286 284 283 281 278 276 274 272 270 268 267 265 264 263 261 259 258 256 255 254 252 251 251 251 251 251
309 309 309 308 308 308 307 306 305 305 304 304 304 303 303 303 303 302 302 301 301 301 301 301 301 301 301 301 301 301 301 301 301 302 302 302 302 302 302 302 302 302 301 301 301 300 300 299 299 299 298 297 297 296 295 294 293 291 290 288 287 285 283 282 280 278 276 273 271 269 267 265 264 262 261 259 257 256 255 253 252 251 250 250 250 250
309 309 309 308 308 307 306 306 305 305 305 305 304 304 304 304 303 303 302 302 302 301 301 302 302 302 302 302 302 302 302 303 303 303 303 303 303 303 303 303 303 303 303 302 302 301 301 301 300 300 299 298 297 296 295 294 292 291 289 288 286 285 283 282 280 278 277 274 272 270 268 265 263 262 261 259 257 255 254 253 252 251 250 249 249 248
309 309 309 308 308 307 307 306 306 305 305 305 305 304 304 303 303 302 302 302 302 302 302 302 302 303 303 303 304 304 304 304 305 305 305 305 305 305 305 305 305 304 304 303 303 303 302 302 301 300 299 298 297 296 295 293 292 290 288 287 285 284 283 281 280 279 277 275 273 271 269 266 264 262 260 259 257 255 253 252 251 251 250 249 248 247
310 310 309 309 309 308 307 307 306 306 305 304 304 303 303 302 302 302 302 303 303 303 303 303 303 304 304 305 305 305 306 306 306 306 306 306 306 306 306 306 305 305 305 304 304 304 303 303 302 301 299 298 297 295 294 292 291 289 288 286 285 283 282 281 280 278 277 276 274 272 270 267 265 262 260 258 257 255 253 251 251 250 249 248 247 246
311 311 310 309 309 308 307 306 306 305 304 304 303 303 302 302 303 303 303 303 304 304 304 304 304 305 305 306 306 307 307 307 307 307 307 307 307 307 307 306 306 306 305 305 305 304 304 303 301 300 298 297 295 294 292 291 290 289 288 286 285 284 283 281 280 279 278 276 275 273 271 269 266 263 261 259 257 255 253 251 250 249 249 248 246 245
311 311 310 309 308 307 306 305 304 304 303 303 303 303 303 303 303 304 304 304 305 305 305 305 306 306 306 307 307 308 308 309 309 309 309 308 308 308 308 307 306 306 306 305 305 304 303 302 300 298 297 295 294 293 292 291 290 290 289 288 287 286 284 283 281 280 278 277 276 274 272 270 267 265 262 260 257 255 253 251 249 248 248 247 246 244
311 310 309 308 307 306 305 304 304 304 303 303 304 304 304 304 304 305 305 305 305 306 306 306 307 307 307 308 308 309 309 310 310 310 310 309 309 309 308 307 307 306 306 306 305 304 302 300 298 296 295 294 293 293 293 293 293 292 292 291 290 288 287 285 283 282 280 278 277 275 273 271 269 266 263 261 258 256 253 251 249 247 247 246 245 244
310 309 308 307 306 305 305 304 304 304 304 304 304 305 305 305 305 306 306 306 306 306 307 307 308 308 309 309 310 310 311 311 311 310 310 310 309 309 308 307 306 306 306 306 305 303 301 299 296 295 294 293 294 294 295 296 296 296 295 294 293 291 290 288 286 284 282 280 278 276 274 272 270 268 265 262 259 257 254 251 249 247 246 245 245 244
309 308 307 306 306 305 305 304 304 305 305 305 305 305 305 306 306 306 307 307 307 308 308 308 309 309 310 311 311 312 312 312 311 311 310 310 309 308 308 307 306 306 306 306 304 302 299 297 295 294 293 294 295 297 298 299 299 299 298 297 296 294 293 291 289 287 284 282 280 278 276 273 271 268 266 263 260 257 255 252 249 247 245 244 244 243
308 308 307 306 306 305 305 305 305 305 305 305 305 305 306 306 307 307 307 308 308 309 309 309 310 310 311 312 313 314 314 313 312 312 311 310 310 309 309 308 307 307 307 306 304 301 298 296 294 293 294 295 297 298 300 300 301 300 300 299 298 297 296 294 293 290 288 286 283 280 278 275 272 269 266 263 260 257 255 253 250 247 245 244 243 242
308 308 307 306 306 306 305 305 305 305 305 306 306 306 306 307 307 308 308 309 309 310 310 311 311 312 313 314 315 315 315 315 314 313 312 311 311 310 310 309 309 308 308 306 304 301 298 296 295 294 295 296 298 299 299 300 300 300 300 300 299 299 298 297 296 294 292 290 287 284 281 278 274 270 266 262 259 257 255 252 250 247 245 243 242 241
309 308 307 307 306 306 306 306 306 306 306 306 306 307 307 308 308 309 310 310 311 311 311 312 312 313 314 315 316 317 317 316 315 314 313 312 312 312 312 311 310 309 308 307 305 302 299 298 296 296 296 297 297 298 298 298 298 298 299 299 299 299 299 298 298 296 295 293 291 288 286 282 278 274 268 264 259 256 254 252 249 247 245 243 241 240
309 309 308 307 307 307 307 307 307 307 307 307 307 308 308 309 310 311 311 312 312 313 313 314 314 314 315 316 318 319 318 317 316 314 314 313 313 313 313 312 311 310 309 308 305 303 301 299 298 297 297 297 296 296 296 296 296 296 296 297 298 299 299 299 298 297 295 293 292 290 288 286 284 279 274 268 262 257 254 251 249 247 245 242 241 239
310 310 309 308 308 308 308 308 308 308 308 308 309 309 310 311 312 312 313 314 314 315 316 316 317 317 318 318 319 320 320 318 316 315 314 314 314 314 314 313 312 311 310 308 306 304 302 300 299 298 297 296 296 295 294 294 293 294 294 296 297 298 298 298 298 296 295 293 292 291 290 290 288 285 281 275 268 262 256 252 249 247 245 242 240 239
311 311 310 310 309 309 309 309 309 309 309 310 311 311 312 313 313 314 315 316 316 317 318 318 319 320 321 321 322 322 321 320 318 316 315 315 315 315 315 314 313 311 310 309 307 305 303 302 300 299 298 297 296 295 294 294 293 293 294 295 296 297 298 298 297 296 294 292 291 291 291 291 290 288 285 281 275 268 262 256 252 248 245 243 240 238
313 312 312 311 311 311 311 311 311 311 312 312 312 313 313 314 315 315 317 318 319 319 320 321 321 322 323 323 324 323 323 321 319 317 316 316 316 316 317 315 313 312 311 309 308 306 304 302 301 300 299 299 298 297 296 295 294 294 294 295 296 297 297 296 296 294 293 292 290 290 290 290 290 289 288 285 280 274 268 262 256 251 247 244 241 238
314 314 313 313 313 313 313 313 313 313 313 314 314 314 315 315 316 317 318 319 320 321 322 322 323 324 324 325 325 325 324 322 320 318 317 317 317 318 318 316 314 313 311 310 309 307 305 303 302 301 301 301 301 300 299 298 297 296 296 296 296 296 295 295 294 293 292 291 290 289 289 289 290 290 289 287 284 280 275 269 263 257 251 246 242 239
316 316 315 315 315 315 315 315 315 315 315 315 316 316 317 317 318 319 320 321 322 323 323 324 325 326 326 326 326 326 325 323 321 319 318 317 318 319 319 318 316 314 312 311 309 307 305 304 303 303 303 304 303 303 302 301 300 300 299 298 297 296 294 293 292 291 291 290 289 289 289 289 289 290 290 289 288 285 280 275 269 263 257 251 245 241
317 317 317 316 316 316 316 316 316 316 316 317 317 318 318 319 321 322 323 324 324 325 325 326 327 327 328 328 328 327 326 324 322 320 319 318 319 320 321 319 317 315 314 313 311 308 306 305 305 305 306 306 306 306 305 304 304 303 302 301 299 296 294 292 291 290 290 290 289 289 289 289 289 290 290 290 289 288 285 280 275 269 263 256 250 244
318 318 318 317 317 317 317 317 317 317 318 318 319 319 320 321 323 324 325 326 326 327 327 328 329 329 329 329 329 328 327 325 323 321 320 320 321 322 322 321 319 317 315 314 312 310 308 307 307 308 308 308 308 308 307 307 306 306 305 303 300 297 294 291 290 289 289 289 289 289 289 289 289 289 289 289 289 288 287 284 280 275 269 263 256 248
319 319 318 318 318 318 318 318 318 319 319 320 320 321 322 323 325 326 327 328 328 329 329 330 330 331 331 331 330 329 328 326 324 323 322 321 322 323 323 322 320 318 316 315 314 313 311 310 310 311 311 311 311 311 310 310 309 308 307 304 301 298 294 291 289 288 288 288 288 288 289 289 288 288 288 288 288 288 287 286 283 279 274 268 262 254
319 319 319 319 319 318 319 319 319 320 321 321 322 323 324 325 327 328 329 329 330 330 331 331 332 332 332 332 331 330 329 328 326 325 324 323 322 323 323 322 320 318 317 316 316 315 314 313 313 314 314 314 315 314 313 312 311 310 308 305 302 298 295 292 290 288 288 287 288 288 289 289 288 287 287 286 286 287 287 286 284 281 278 273 267 259
320 320 320 319 319 319 320 320 321 321 322 323 324 324 326 327 328 329 330 331 331 331 332 332 332 332 332 332 332 331 331 329 328 326 325 323 322 322 323 322 320 319 318 318 317 317 316 316 316 316 317 318 318 317 315 314 313 311 309 306 303 299 296 293 291 290 288 288 288 289 289 289 288 287 286 286 285 286 286 285 284 283 280 277 271 264
320 320 320 320 320 320 320 321 322 323 324 324 325 326 327 328 329 330 331 331 332 332 332 332 332 332 332 332 332 332 331 330 329 327 325 323 322 323 323 322 321 319 319 319 319 319 318 318 318 319 320 320 320 319 318 316 315 313 311 308 304 301 298 295 293 291 290 289 289 290 291 291 290 288 287 286 285 285 285 284 284 282 281 279 275 268
320 320 320 320 321 321 322 323 324 324 325 326 327 327 328 329 329 330 331 332 332 332 332 332 332 332 332 331 332 332 332 331 330 327 325 323 323 322 323 322 321 320 320 320 320 320 320 320 320 321 322 322 322 322 321 320 319 316 314 310 307 303 300 298 295 293 291 290 291 291 292 292 291 290 288 286 285 284 284 283 282 281 280 279 277 272
321 321 321 321 322 323 323 324 325 326 327 327 328 328 328 329 329 330 331 332 332 332 332 332 332 331 331 331 331 332 333 332 330 327 325 323 323 322 322 321 321 321 321 321 321 321 320 321 322 323 324 324 325 325 326 325 323 320 317 314 310 307 304 301 297 295 292 292 292 292 293 293 292 291 288 286 285 284 283 281 280 278 278 278 278 274
321 321 322 322 323 324 324 325 326 327 327 328 328 328 328 328 329 330 331 331 332 332 332 332 331 331 331 331 331 332 333 333 331 327 325 323 322 322 322 321 321 321 322 321 321 321 321 322 323 324 325 326 327 329 330 329 328 326 322 319 316 313 309 306 302 298 295 293 293 293 293 293 292 291 289 287 285 284 282 279 277 275 275 276 277 275
321 321 322 322 323 324 325 326 327 327 328 328 328 328 328 328 329 330 330 331 331 331 331 331 331 331 331 331 331 332 333 333 331 327 324 323 322 322 322 321 321 321 322 322 321 321 321 322 323 324 325 326 328 331 332 333 332 330 328 325 322 319 316 313 309 304 300 297 294 293 292 292 291 290 288 287 285 283 280 277 273 271 271 272 273 272
322 322 322 323 324 325 326 327 327 328 328 327 327 327 327 328 329 330 330 331 331 331 331 332 332 332 332 331 331 331 332 332 330 327 324 323 322 322 322 321 321 322 322 322 322 321 322 322 323 324 325 327 330 332 334 335 335 334 331 328 325 323 322 321 317 313 308 303 298 294 292 290 289 288 287 286 285 282 278 274 269 266 265 265 265 266
323 323 323 324 325 326 327 327 328 328 327 327 327 327 327 328 329 329 330 331 331 332 332 332 332 332 332 332 331 331 332 331 329 326 324 323 322 322 322 321 321 322 322 322 322 322 322 323 324 325 327 329 331 334 336 338 338 337 334 330 327 325 325 325 324 321 317 311 305 299 294 290 288 287 286 285 284 280 275 269 263 260 259 257 256 257
324 324 324 325 326 327 328 328 328 327 327 326 326 326 327 328 329 330 331 331 332 332 332 333 333 333 332 332 332 331 331 330 328 326 324 323 322 322 322 322 322 322 322 322 323 323 323 324 325 326 328 329 331 335 338 341 341 340 338 334 330 327 326 326 326 325 322 317 311 304 298 292 288 286 284 283 282 278 271 263 258 255 254 251 248 249
325 325 326 326 327 328 328 328 327 327 326 325 325 325 326 327 329 330 331 332 332 333 333 333 333 333 332 332 331 331 331 330 328 326 324 323 322 322 322 323 323 323 322 322 323 323 324 325 326 327 328 329 331 334 338 340 342 342 341 337 332 328 325 325 326 326 325 322 317 310 303 296 290 286 284 282 280 275 266 257 253 253 252 246 241 242
326 327 327 327 328 328 328 328 327 326 324 324 323 324 325 327 328 330 331 332 332 333 334 334 334 334 333 332 331 331 330 330 328 326 325 323 322 322 322 323 323 323 322 323 323 324 324 326 327 328 328 329 330 332 335 337 339 340 340 338 333 328 325 324 325 327 327 326 321 315 308 300 293 288 285 282 278 271 261 253 251 253 255 245 234 236
328 327 327 327 327 327 327 326 325 324 323 322 322 323 324 326 328 329 331 332 332 333 334 335 335 335 334 333 331 330 330 330 329 327 325 324 323 322 322 322 323 323 322 323 323 324 325 326 327 328 328 329 329 330 332 334 335 336 336 336 333 329 325 324 326 328 329 328 325 320 313 304 297 291 286 283 277 269 259 254 253 256 262 255 235 232
328 327 327 326 326 326 326 325 324 323 322 321 321 322 323 325 327 329 330 331 332 334 335 336 336 336 335 334 332 331 330 329 329 327 326 325 323 322 321 322 322 323 323 323 323 324 325 326 327 327 327 327 327 328 328 329 330 331 332 332 331 329 326 325 326 328 329 328 326 322 316 308 300 294 288 283 276 269 263 261 260 262 268 274 252 224
326 326 325 325 325 324 324 324 322 322 321 320 321 321 322 324 326 328 329 331 332 334 335 337 338 338 337 335 333 331 330 329 329 328 326 325 324 323 322 322 322 322 322 323 323 324 324 325 325 325 325 325 325 325 325 326 327 327 328 328 328 327 326 326 326 327 327 327 326 323 318 311 303 296 290 284 278 273 271 272 271 271 273 279 277 244
325 324 324 324 323 323 323 322 322 321 320 320 319 320 321 322 324 326 328 331 332 334 336 337 338 339 338 336 334 332 331 330 329 328 327 326 325 324 323 322 322 322 322 322 322 323 323 322 322 322 322 322 322 322 323 324 324 325 325 325 325 325 326 326 325 326 326 326 326 324 320 314 306 299 292 286 280 278 279 281 281 278 277 281 283 279
324 323 323 323 323 323 322 322 321 320 319 318 319 319 320 321 323 326 328 330 332 334 336 337 339 339 339 338 336 334 333 332 331 330 329 328 326 325 323 322 322 321 321 321 321 321 320 320 320 320 321 320 320 320 321 322 323 323 323 323 323 323 323 324 324 324 325 325 325 324 320 315 309 302 295 288 284 282 283 286 285 282 280 281 284 286
323 322 322 322 322 322 321 321 320 318 318 317 317 318 319 320 322 325 328 330 332 334 335 337 338 339 340 339 337 336 335 334 333 332 331 329 327 325 323 322 320 320 319 319 319 319 318 318 318 318 319 318 318 318 319 320 322 322 322 321 321 321 321 322 323 323 323 324 324 323 321 317 312 306 299 292 288 285 285 285 283 280 278 280 282 285
323 322 322 322 322 321 320 319 318 317 316 316 317 318 319 320 322 325 327 330 332 334 335 336 337 338 339 340 339 338 337 336 335 333 332 330 328 325 322 320 318 317 316 315 315 315 315 315 315 316 316 316 316 317 318 319 321 321 321 321 320 320 319 320 321 322 322 323 324 323 321 319 315 309 303 297 292 288 286 282 277 273 272 274 278 281
322 322 321 321 321 320 319 318 317 316 316 316 317 318 319 320 322 325 327 330 331 333 334 335 336 337 338 340 341 341 340 339 337 334 331 329 326 324 321 318 315 313 312 311 310 311 312 313 313 314 314 315 315 316 318 319 321 321 321 321 320 319 318 318 319 319 320 322 323 323 322 320 317 312 306 299 294 290 286 279 271 264 263 267 272 277
321 320 320 320 319 319 318 317 317 316 316 317 317 318 319 320 322 324 327 329 331 332 333 334 335 336 337 339 340 342 343 342 339 336 332 328 325 321 318 315 312 310 309 308 307 308 309 310 312 313 314 315 316 317 318 320 321 321 321 321 320 318 316 316 315 316 317 318 320 321 321 321 319 315 309 302 295 290 284 276 267 259 256 260 266 271
319 319 319 319 319 319 318 318 318 318 317 318 318 319 320 321 322 324 326 328 330 332 332 333 334 335 336 337 339 341 343 343 342 339 334 330 325 321 317 314 312 309 308 308 308 308 308 309 311 312 314 315 316 318 319 320 320 320 320 320 319 317 315 314 312 312 312 313 315 318 320 321 319 316 311 304 295 288 281 273 265 257 253 254 260 267
319 319 319 320 320 320 320 320 320 319 319 319 319 320 320 322 323 325 326 328 329 331 332 333 333 334 335 336 337 339 340 342 342 340 337 333 329 325 321 318 315 313 312 311 311 311 311 311 312 313 314 315 316 317 318 318 318 318 318 319 318 317 315 313 311 309 308 309 311 314 317 319 319 317 313 306 296 286 278 270 262 255 252 253 257 263
319 320 320 321 322 322 322 322 321 321 320 320 321 321 322 323 324 325 326 328 329 330 331 332 332 333 334 335 336 337 338 339 340 340 338 336 333 330 327 324 322 320 318 317 316 315 314 314 314 314 314 315 315 316 317 316 316 316 316 317 317 316 315 312 310 308 307 306 307 310 314 316 318 318 315 309 299 287 275 266 259 254 251 253 256 261
321 321 322 323 324 324 324 324 323 323 323 323 323 324 324 325 325 326 327 328 329 330 330 331 331 332 332 333 334 335 336 337 339 339 338 336 334 332 330 329 327 325 323 322 320 319 317 317 316 316 317 317 317 317 317 316 315 315 315 316 316 316 315 312 310 307 306 305 305 307 310 313 316 318 316 312 304 290 273 262 256 252 251 253 255 259
323 323 324 324 325 326 326 326 326 326 326 326 326 326 326 327 327 327 327 328 329 329 330 330 330 331 331 332 332 333 334 336 337 337 337 336 334 333 332 330 329 328 327 325 324 322 321 320 319 319 320 320 319 319 318 318 317 317 316 316 316 316 314 311 309 307 305 304 304 305 307 310 313 316 316 313 306 293 272 258 252 251 251 253 255 257
324 324 325 326 326 327 328 329 329 329 329 329 329 328 329 329 329 329 329 329 329 330 330 330 330 331 331 331 332 333 334 335 335 336 336 335 334 332 332 331 330 329 328 327 326 325 324 322 322 323 324 324 323 322 321 320 320 319 318 318 317 316 313 310 308 306 305 304 304 305 306 309 312 314 315 313 307 294 273 257 251 251 253 253 253 253
Height
3036 3035 3034 3033 3032 3031 3030 3029 3028 3027 3026 3026 3025 3023 3022 3021 3020 3019 3018 3017 3016 3015 3013 3012 3011 3010 3008 3007 3005 3004 3002 3000 2999 2997 2995 2993 2992 2990 2988 2986 2985 2983 2981 2980 2978 2977 2975 2974 2972 2971 2970 2968 2967 2966 2966 2965 2964 2963 2963 2962 2962 2962 2962 2962 2962 2962 2962 2962 2962 2962 2962 2962 2963 2964 2965 2966 2967 2968 2969 2969 2970 2971 2972 2974 2975 2977
3033 3032 3031 3030 3029 3028 3027 3026 3025 3024 3023 3022 3021 3021 3020 3019 3017 3016 3016 3014 3013 3011 3010 3009 3007 3006 3005 3003 3001 3000 2998 2996 2995 2993 2991 2990 2988 2986 2984 2982 2981 2979 2977 2976 2974 2972 2970 2969 2967 2966 2964 2963 2962 2961 2960 2959 2958 2957 2956 2956 2956 2955 2955 2955 2955 2955 2955 2955 2955 2956 2956 2956 2956 2958 2959 2960 2961 2961 2962 2963 2964 2965 2966 2967 2969 2971
3031 3029 3028 3027 3026 3026 3024 3023 3022 3021 3020 3019 3018 3017 3016 3016 3014 3013 3012 3011 3010 3008 3007 3005 3004 3002 3001 2999 2997 2996 2994 2992 2990 2988 2987 2985 2983 2981 2980 2978 2976 2975 2973 2971 2969 2967 2966 2964 2962 2961 2959 2958 2956 2955 2954 2953 2952 2951 2950 2949 2949 2948 2948 2948 2948 2948 2948 2948 2948 2949 2949 2949 2950 2951 2952 2953 2955 2956 2956 2957 2958 2959 2960 2961 2963 2965
3028 3027 3026 3025 3024 3023 3022 3021 3019 3018 3017 3016 3015 3014 3013 3012 3011 3009 3008 3007 3006 3004 3003 3001 3000 2998 2996 2995 2993 2991 2990 2987 2986 2984 2982 2981 2979 2977 2975 2973 2972 2970 2968 2966 2964 2962 2961 2959 2957 2956 2954 2952 2951 2950 2949 2948 2946 2945 2944 2943 2942 2941 2941 2941 2941 2941 2941 2941 2941 2942 2942 2943 2943 2944 2945 2946 2948 2949 2951 2951 2952 2953 2954 2955 2956 2959
3025 3024 3023 3022 3021 3021 3019 3018 3017 3016 3014 3013 3012 3011 3009 3008 3007 3006 3005 3003 3002 3001 2999 2997 2996 2994 2992 2990 2989 2987 2985 2983 2981 2980 2978 2976 2974 2972 2971 2969 2967 2965 2963 2961 2959 2957 2955 2953 2952 2950 2949 2947 2946 2945 2943 2942 2941 2940 2938 2937 2936 2936 2935 2934 2934 2933 2933 2934 2934 2934 2935 2936 2936 2937 2938 2939 2941 2943 2944 2945 2946 2947 2948 2949 2951 2952
3023 3022 3021 3020 3019 3018 3017 3015 3014 3013 3011 3010 3009 3008 3006 3005 3004 3002 3001 3000 2998 2997 2995 2994 2992 2990 2988 2986 2984 2983 2981 2979 2977 2975 2973 2971 2970 2968 2966 2964 2962 2960 2958 2956 2954 2952 2950 2948 2946 2945 2943 2941 2940 2939 2937 2936 2935 2934 2933 2931 2931 2930 2929 2928 2927 2927 2926 2926 2926 2927 2927 2928 2929 2930 2931 2932 2934 2936 2938 2939 2940 2941 2942 2943 2945 2946
3020 3019 3018 3017 3016 3015 3014 3012 3011 3010 3008 3007 3006 3005 3003 3002 3001 2999 2997 2996 2995 2993 2991 2990 2988 2986 2985 2982 2980 2978 2976 2975 2973 2971 2969 2966 2965 2963 2961 2959 2957 2956 2953 2951 2949 2947 2945 2942 2941 2939 2937 2936 2934 2933 2932 2930 2929 2928 2927 2926 2925 2924 2923 2922 2921 2921 2920 2920 2920 2920 2920 2921 2922 2923 2924 2925 2926 2928 2930 2932 2934 2935 2936 2937 2939 2941
3017 3016 3016 3014 3013 3012 3011 3010 3008 3007 3005 3004 3002 3001 3000 2999 2997 2996 2994 2992 2991 2989 2987 2986 2984 2982 2981 2979 2976 2974 2971 2970 2968 2966 2964 2962 2960 2958 2956 2955 2953 2951 2949 2946 2944 2942 2939 2937 2935 2933 2932 2930 2929 2927 2926 2925 2923 2922 2921 2920 2919 2918 2917 2916 2916 2915 2914 2914 2913 2913 2914 2914 2915 2916 2916 2918 2919 2921 2923 2925 2927 2929 2930 2931 2933 2934
3015 3014 3013 3012 3011 3010 3008 3007 3006 3004 3002 3001 2999 2997 2996 2995 2993 2992 2991 2989 2987 2985 2983 2981 2980 2978 2976 2975 2973 2970 2967 2965 2963 2961 2959 2957 2955 2953 2951 2950 2948 2946 2944 2941 2939 2937 2934 2932 2930 2928 2926 2925 2923 2922 2921 2919 2918 2917 2916 2915 2914 2912 2911 2911 2910 2909 2908 2908 2907 2907 2907 2908 2908 2909 2910 2911 2912 2913 2916 2918 2920 2922 2924 2925 2927 2928
3012 3011 3010 3009 3008 3007 3006 3004 3002 3001 3000 2997 2996 2994 2992 2991 2989 2987 2986 2986 2984 2982 2980 2978 2976 2974 2972 2970 2968 2966 2964 2961 2958 2956 2955 2953 2951 2948 2946 2945 2943 2941 2939 2937 2935 2932 2930 2927 2925 2923 2921 2920 2918 2917 2916 2915 2913 2912 2911 2910 2909 2907 2906 2905 2904 2903 2903 2902 2902 2901 2901 2902 2902 2902 2903 2904 2905 2906 2908 2910 2912 2915 2917 2919 2921 2923
3010 3009 3008 3006 3005 3004 3003 3001 2999 2997 2996 2994 2992 2990 2989 2987 2985 2983 2981 2980 2980 2978 2976 2974 2972 2970 2968 2965 2963 2961 2960 2957 2955 2952 2951 2949 2947 2945 2942 2940 2938 2936 2934 2932 2930 2927 2925 2922 2920 2918 2916 2915 2914 2913 2911 2910 2909 2908 2906 2905 2904 2902 2901 2900 2899 2898 2897 2896 2896 2896 2896 2896 2896 2896 2897 2897 2898 2900 2901 2903 2905 2907 2910 2912 2915 2917
3008 3006 3005 3004 3002 3001 2999 2998 2996 2994 2993 2991 2989 2987 2985 2983 2982 2980 2977 2976 2974 2973 2971 2970 2967 2966 2964 2961 2958 2956 2954 2952 2950 2948 2946 2944 2942 2940 2938 2936 2934 2932 2930 2928 2926 2923 2921 2918 2916 2914 2912 2911 2910 2909 2907 2906 2905 2903 2902 2901 2899 2898 2896 2895 2894 2893 2892 2891 2890 2890 2890 2890 2890 2890 2891 2891 2892 2893 2894 2896 2898 2900 2902 2905 2908 2910
3005 3004 3002 3001 3000 2998 2996 2995 2993 2991 2989 2988 2986 2984 2981 2980 2978 2976 2974 2972 2970 2969 2967 2965 2963 2961 2960 2957 2955 2952 2949 2947 2945 2943 2941 2939 2937 2935 2933 2931 2929 2927 2925 2923 2921 2918 2916 2914 2912 2910 2909 2907 2906 2905 2903 2902 2901 2899 2898 2896 2895 2893 2892 2891 2889 2888 2887 2886 2885 2885 2884 2884 2884 2884 2885 2885 2886 2886 2887 2889 2891 2893 2895 2898 2901 2904
3002 3001 3000 2998 2996 2995 2993 2991 2990 2988 2986 2984 2982 2980 2978 2976 2974 2972 2970 2968 2966 2965 2963 2961 2959 2957 2956 2954 2951 2948 2945 2942 2940 2938 2936 2935 2933 2931 2929 2926 2923 2921 2921 2919 2916 2914 2912 2910 2908 2906 2905 2904 2902 2901 2900 2898 2897 2896 2894 2893 2891 2890 2888 2887 2886 2884 2883 2882 2881 2880 2879 2879 2878 2878 2879 2879 2880 2880 2881 2882 2884 2886 2888 2891 2894 2897
3000 2998 2996 2995 2993 2992 2990 2988 2986 2984 2982 2981 2979 2977 2975 2972 2971 2969 2967 2965 2962 2960 2959 2956 2955 2953 2952 2951 2948 2945 2941 2937 2934 2932 2931 2930 2928 2927 2925 2922 2919 2916 2916 2914 2912 2909 2907 2906 2904 2902 2901 2900 2899 2897 2896 2895 2893 2892 2891 2890 2888 2887 2885 2884 2882 2881 2880 2878 2877 2876 2875 2874 2873 2873 2873 2873 2874 2875 2875 2876 2877 2879 2881 2884 2886 2890
2997 2995 2993 2992 2990 2988 2987 2985 2983 2981 2979 2977 2975 2973 2971 2969 2967 2965 2963 2961 2958 2956 2954 2952 2950 2948 2947 2947 2945 2942 2938 2934 2930 2927 2927 2925 2924 2923 2921 2918 2914 2912 2911 2910 2908 2905 2903 2902 2900 2899 2897 2896 2895 2894 2892 2891 2890 2889 2888 2886 2885 2884 2882 2881 2879 2878 2876 2875 2874 2872 2871 2870 2869 2869 2868 2868 2868 2868 2869 2870 2871 2873 2875 2877 2880 2883
2994 2992 2990 2988 2987 2985 2983 2981 2980 2978 2976 2974 2972 2970 2968 2966 2964 2961 2959 2957 2955 2952 2950 2948 2946 2944 2942 2941 2940 2938 2936 2931 2926 2923 2922 2921 2920 2919 2917 2914 2911 2907 2906 2905 2904 2901 2900 2898 2896 2895 2894 2892 2891 2890 2889 2888 2887 2886 2885 2883 2882 2880 2879 2877 2876 2875 2874 2872 2871 2869 2868 2867 2866 2865 2865 2864 2864 2864 2864 2864 2866 2867 2869 2871 2873 2876
2991 2989 2986 2985 2983 2982 2980 2978 2976 2974 2972 2971 2969 2966 2965 2963 2961 2959 2956 2954 2952 2950 2947 2944 2942 2940 2938 2936 2934 2933 2931 2927 2923 2919 2917 2916 2916 2915 2914 2911 2907 2904 2902 2901 2900 2898 2896 2894 2893 2891 2890 2889 2888 2887 2886 2885 2884 2883 2881 2880 2879 2877 2876 2874 2873 2871 2870 2869 2868 2866 2866 2864 2863 2862 2861 2861 2860 2859 2859 2859 2860 2861 2862 2865 2867 2870
2987 2985 2983 2981 2980 2978 2977 2975 2973 2971 2969 2967 2965 2964 2962 2960 2958 2956 2953 2951 2949 2947 2945 2942 2939 2937 2935 2933 2931 2929 2927 2923 2919 2916 2913 2912 2911 2911 2910 2907 2903 2901 2899 2897 2896 2894 2892 2891 2889 2888 2887 2886 2885 2884 2883 2882 2881 2880 2878 2877 2876 2874 2872 2871 2870 2868 2867 2866 2865 2863 2862 2861 2860 2859 2858 2857 2856 2855 2855 2855 2855 2856 2856 2858 2861 2863
2984 2982 2980 2978 2976 2974 2973 2971 2970 2968 2966 2964 2962 2961 2959 2957 2955 2953 2951 2949 2946 2944 2942 2939 2937 2934 2932 2930 2927 2926 2923 2920 2916 2912 2909 2908 2907 2907 2906 2903 2900 2897 2895 2894 2893 2891 2889 2887 2886 2885 2884 2883 2882 2881 2880 2879 2878 2876 2875 2874 2872 2871 2869 2868 2866 2865 2864 2863 2861 2860 2859 2858 2857 2856 2854 2853 2852 2852 2851 2851 2851 2851 2851 2853 2855 2858
2981 2979 2977 2975 2973 2971 2970 2968 2966 2965 2963 2961 2959 2957 2956 2954 2952 2950 2949 2946 2944 2941 2939 2936 2934 2932 2929 2927 2924 2922 2921 2917 2913 2909 2906 2904 2903 2903 2902 2900 2896 2893 2891 2891 2889 2887 2885 2883 2882 2881 2881 2880 2879 2878 2877 2876 2875 2873 2872 2871 2869 2867 2866 2865 2863 2862 2861 2860 2859 2857 2856 2855 2853 2852 2851 2850 2849 2849 2848 2847 2847 2847 2847 2848 2850 2852
2978 2976 2974 2972 2971 2969 2967 2965 2963 2962 2960 2959 2956 2954 2952 2951 2949 2947 2945 2943 2941 2939 2936 2934 2932 2930 2928 2925 2922 2920 2918 2915 2911 2907 2903 2900 2899 2899 2899 2896 2893 2890 2888 2886 2885 2884 2882 2881 2879 2878 2878 2877 2876 2876 2875 2873 2872 2870 2869 2867 2866 2864 2863 2861 2860 2859 2858 2857 2856 2854 2853 2852 2851 2850 2848 2847 2846 2846 2845 2844 2843 2843 2843 2843 2845 2847
2975 2973 2971 2970 2968 2966 2964 2962 2961 2959 2958 2956 2954 2952 2950 2948 2946 2945 2942 2941 2938 2936 2934 2931 2929 2927 2926 2923 2921 2918 2916 2913 2909 2905 2901 2898 2896 2895 2895 2892 2889 2886 2885 2883 2882 2880 2878 2877 2876 2875 2875 2874 2874 2873 2871 2870 2869 2867 2866 2864 2863 2861 2860 2859 2857 2856 2855 2854 2852 2851 2850 2849 2848 2846 2846 2845 2844 2843 2842 2841 2840 2840 2839 2839 2840 2842
2972 2971 2969 2967 2966 2964 2962 2960 2959 2957 2955 2953 2951 2950 2948 2946 2944 2942 2941 2938 2936 2933 2931 2929 2926 2924 2922 2921 2918 2916 2914 2911 2907 2903 2899 2896 2893 2892 2891 2889 2886 2883 2881 2881 2879 2877 2875 2874 2873 2873 2872 2871 2871 2870 2869 2867 2866 2865 2863 2861 2860 2859 2857 2856 2855 2853 2852 2851 2849 2848 2847 2846 2845 2844 2843 2842 2841 2840 2839 2838 2837 2836 2836 2836 2836 2837
2970 2969 2967 2965 2963 2961 2960 2958 2956 2955 2953 2951 2949 2947 2946 2944 2942 2940 2938 2936 2933 2931 2928 2926 2924 2922 2921 2919 2916 2914 2911 2909 2906 2902 2898 2894 2891 2890 2889 2887 2884 2881 2878 2877 2876 2875 2873 2871 2871 2870 2869 2869 2868 2867 2866 2865 2863 2862 2860 2859 2857 2856 2854 2853 2852 2851 2849 2848 2846 2845 2844 2843 2841 2841 2840 2839 2838 2837 2836 2835 2834 2833 2833 2833 2833 2833
2968 2966 2965 2963 2961 2959 2958 2956 2954 2953 2951 2949 2947 2945 2943 2941 2940 2938 2936 2933 2931 2928 2926 2924 2922 2920 2918 2916 2914 2911 2909 2906 2903 2900 2896 2892 2889 2887 2886 2884 2881 2878 2876 2875 2874 2872 2870 2869 2868 2867 2867 2866 2865 2864 2863 2862 2861 2859 2857 2856 2855 2853 2852 2850 2849 2847 2846 2845 2843 2842 2841 2840 2839 2838 2837 2836 2835 2834 2833 2832 2831 2831 2830 2830 2830 2830
2966 2964 2963 2961 2959 2958 2956 2955 2953 2951 2949 2947 2945 2943 2941 2939 2937 2935 2933 2931 2929 2927 2925 2922 2919 2917 2915 2913 2911 2909 2906 2904 2901 2898 2894 2891 2887 2885 2883 2881 2879 2876 2874 2872 2871 2870 2868 2866 2865 2865 2864 2864 2863 2862 2861 2859 2858 2856 2855 2853 2852 2850 2849 2848 2846 2845 2843 2842 2841 2839 2838 2837 2836 2835 2834 2833 2832 2831 2831 2830 2829 2828 2827 2827 2827 2827
2964 2962 2961 2959 2957 2956 2954 2952 2951 2949 2947 2945 2943 2941 2939 2937 2935 2933 2931 2929 2927 2925 2922 2920 2917 2915 2912 2911 2909 2907 2905 2902 2899 2895 2892 2888 2885 2883 2881 2879 2877 2874 2872 2870 2869 2868 2867 2865 2863 2862 2862 2861 2860 2859 2858 2857 2855 2854 2852 2851 2849 2848 2846 2845 2844 2842 2841 2839 2838 2837 2836 2834 2833 2832 2831 2831 2830 2829 2828 2827 2826 2826 2825 2825 2825 2825
2962 2961 2959 2957 2955 2954 2952 2950 2948 2947 2945 2943 2941 2939 2937 2935 2933 2931 2929 2927 2925 2922 2920 2918 2915 2913 2910 2908 2906 2904 2903 2900 2897 2893 2889 2886 2883 2881 2879 2877 2875 2872 2870 2868 2866 2866 2865 2864 2862 2861 2859 2859 2858 2857 2856 2854 2853 2851 2850 2848 2847 2846 2844 2843 2841 2840 2838 2837 2835 2834 2833 2832 2831 2830 2829 2828 2827 2826 2825 2825 2824 2823 2823 2823 2824 2823
2961 2959 2957 2955 2953 2952 2950 2948 2946 2945 2943 2941 2939 2937 2935 2933 2931 2930 2927 2925 2923 2921 2918 2916 2913 2911 2908 2905 2902 2900 2899 2898 2895 2891 2887 2884 2881 2879 2877 2875 2873 2871 2869 2866 2864 2862 2862 2861 2861 2859 2857 2856 2856 2855 2853 2852 2850 2849 2847 2846 2845 2843 2842 2841 2839 2837 2836 2834 2833 2832 2831 2829 2828 2827 2826 2825 2824 2823 2823 2822 2822 2821 2821 2821 2822 2822
2959 2957 2955 2953 2951 2950 2948 2946 2945 2943 2941 2939 2937 2936 2933 2931 2929 2927 2926 2923 2921 2918 2916 2914 2911 2909 2906 2903 2900 2897 2895 2894 2892 2889 2885 2882 2880 2877 2876 2873 2871 2870 2868 2866 2863 2860 2858 2858 2858 2858 2856 2855 2854 2853 2852 2850 2848 2846 2845 2844 2842 2841 2840 2838 2836 2835 2833 2831 2830 2829 2828 2827 2826 2825 2824 2823 2822 2821 2821 2820 2820 2820 2820 2820 2820 2820
2957 2955 2953 2951 2950 2948 2946 2945 2943 2941 2939 2937 2936 2934 2932 2930 2928 2926 2924 2921 2919 2916 2914 2911 2909 2907 2905 2902 2899 2896 2893 2891 2889 2886 2883 2880 2877 2876 2874 2872 2869 2868 2867 2865 2863 2860 2856 2854 2854 2854 2854 2853 2852 2851 2850 2848 2846 2845 2843 2842 2841 2839 2838 2836 2834 2832 2831 2829 2828 2826 2825 2824 2823 2822 2821 2820 2819 2819 2818 2818 2818 2818 2818 2818 2818 2818
2955 2953 2951 2950 2948 2946 2944 2943 2941 2939 2937 2936 2934 2932 2930 2928 2926 2924 2922 2920 2917 2915 2912 2909 2906 2904 2902 2900 2897 2895 2892 2890 2887 2884 2881 2879 2876 2873 2872 2870 2868 2866 2865 2863 2862 2859 2856 2854 2852 2851 2851 2850 2850 2848 2847 2846 2844 2843 2841 2840 2838 2837 2836 2834 2832 2830 2828 2826 2825 2824 2823 2821 2821 2820 2819 2818 2817 2816 2816 2816 2816 2816 2816 2816 2816 2815
2952 2951 2949 2947 2946 2944 2942 2941 2939 2937 2936 2934 2932 2930 2928 2926 2925 2922 2920 2917 2915 2913 2910 2908 2905 2902 2900 2897 2895 2893 2891 2888 2886 2883 2880 2877 2874 2872 2870 2868 2866 2865 2863 2861 2860 2858 2856 2853 2851 2849 2848 2847 2847 2846 2845 2844 2842 2841 2839 2838 2836 2835 2833 2832 2830 2828 2826 2824 2823 2821 2820 2819 2818 2817 2816 2816 2815 2814 2814 2814 2814 2814 2814 2814 2813 2813
2950 2949 2947 2946 2944 2942 2941 2939 2937 2936 2934 2932 2931 2929 2927 2925 2923 2921 2918 2916 2913 2911 2908 2906 2904 2901 2899 2896 2893 2891 2889 2887 2884 2881 2878 2876 2873 2870 2868 2866 2865 2863 2861 2859 2858 2856 2854 2852 2851 2849 2846 2844 2843 2843 2842 2841 2840 2839 2837 2836 2835 2833 2832 2830 2828 2826 2824 2822 2821 2819 2818 2816 2816 2815 2814 2813 2812 2812 2811 2811 2811 2811 2811 2811 2811 2811
2948 2946 2945 2943 2942 2940 2939 2937 2936 2934 2932 2931 2929 2927 2926 2923 2921 2919 2917 2915 2912 2910 2907 2905 2902 2900 2897 2895 2892 2889 2887 2885 2883 2880 2877 2874 2871 2869 2866 2865 2863 2862 2860 2858 2856 2854 2852 2850 2849 2847 2845 2843 2841 2840 2839 2839 2838 2837 2836 2835 2833 2832 2831 2829 2827 2825 2823 2821 2819 2817 2816 2814 2813 2812 2811 2811 2810 2810 2809 2809 2809 2809 2809 2810 2810 2810
2946 2944 2943 2941 2940 2939 2937 2936 2934 2933 2931 2929 2927 2926 2924 2922 2920 2918 2916 2913 2911 2909 2906 2904 2901 2898 2896 2893 2891 2888 2886 2883 2881 2879 2876 2873 2871 2868 2866 2864 2862 2861 2858 2856 2854 2853 2851 2849 2847 2846 2844 2842 2840 2838 2836 2836 2836 2835 2834 2833 2832 2830 2829 2827 2826 2824 2821 2819 2817 2816 2814 2813 2811 2810 2810 2809 2808 2807 2807 2807 2806 2807 2807 2808 2808 2809
2944 2942 2941 2940 2938 2937 2936 2934 2932 2931 2929 2928 2926 2924 2922 2920 2918 2916 2914 2912 2910 2907 2905 2902 2900 2897 2895 2891 2889 2886 2884 2881 2879 2877 2875 2872 2870 2867 2865 2863 2861 2860 2858 2856 2853 2851 2850 2847 2846 2843 2842 2840 2839 2837 2836 2834 2833 2832 2831 2831 2830 2829 2827 2826 2824 2822 2820 2818 2816 2814 2813 2811 2810 2808 2808 2807 2806 2806 2805 2804 2804 2805 2805 2806 2807 2808
2942 2941 2939 2938 2936 2935 2934 2932 2931 2929 2927 2926 2924 2922 2920 2919 2917 2915 2913 2911 2908 2906 2903 2901 2899 2896 2894 2891 2888 2885 2883 2881 2878 2876 2874 2871 2869 2867 2865 2862 2860 2859 2857 2855 2853 2851 2849 2847 2845 2843 2841 2839 2837 2836 2835 2834 2832 2831 2829 2828 2827 2826 2826 2824 2823 2821 2819 2817 2815 2813 2811 2810 2808 2807 2806 2805 2804 2803 2802 2802 2802 2803 2803 2804 2805 2806
2941 2939 2938 2936 2935 2933 2932 2930 2929 2927 2926 2924 2922 2920 2918 2917 2915 2913 2911 2909 2907 2905 2902 2900 2898 2895 2893 2890 2887 2885 2882 2880 2877 2875 2873 2871 2868 2866 2864 2861 2860 2858 2856 2854 2852 2851 2848 2847 2845 2843 2841 2839 2836 2834 2833 2832 2831 2830 2828 2826 2824 2823 2823 2822 2821 2820 2818 2816 2814 2812 2810 2808 2807 2806 2805 2804 2803 2802 2801 2801 2801 2801 2802 2802 2802 2802
2939 2938 2936 2935 2933 2932 2930 2929 2927 2926 2924 2922 2920 2918 2916 2915 2913 2911 2910 2908 2906 2903 2901 2899 2896 2894 2892 2889 2886 2884 2881 2879 2876 2874 2872 2870 2867 2865 2863 2861 2859 2857 2855 2853 2851 2850 2848 2846 2844 2842 2841 2839 2836 2834 2832 2831 2830 2829 2827 2825 2823 2821 2821 2820 2819 2818 2816 2815 2813 2811 2809 2807 2806 2804 2803 2802 2801 2801 2800 2800 2800 2801 2801 2801 2801 2801
2937 2936 2935 2933 2932 2930 2929 2927 2926 2924 2922 2921 2919 2917 2915 2913 2911 2909 2908 2906 2904 2902 2900 2897 2895 2893 2891 2888 2886 2883 2881 2878 2876 2873 2871 2869 2866 2864 2862 2860 2858 2856 2854 2852 2850 2849 2847 2846 2844 2842 2840 2838 2836 2833 2831 2830 2829 2828 2826 2824 2822 2820 2819 2818 2818 2817 2815 2813 2811 2810 2808 2806 2804 2803 2802 2801 2801 2800 2800 2799 2799 2800 2800 2801 2801 2801
2936 2934 2933 2931 2930 2929 2927 2926 2924 2922 2921 2919 2917 2915 2913 2911 2909 2907 2906 2904 2902 2900 2898 2896 2894 2892 2890 2888 2885 2883 2880 2877 2875 2872 2870 2867 2865 2863 2861 2859 2857 2855 2853 2851 2849 2847 2846 2845 2843 2841 2839 2837 2835 2833 2830 2829 2827 2826 2825 2823 2821 2819 2817 2816 2815 2815 2814 2812 2811 2809 2807 2805 2803 2802 2801 2800 2800 2799 2799 2798 2799 2799 2799 2800 2800 2800
2934 2933 2931 2930 2929 2927 2926 2924 2923 2921 2919 2917 2916 2913 2911 2909 2907 2906 2904 2902 2901 2899 2896 2894 2892 2890 2888 2886 2884 2882 2880 2877 2874 2872 2869 2867 2865 2862 2860 2858 2856 2854 2852 2850 2848 2846 2845 2843 2842 2841 2839 2836 2834 2832 2830 2827 2826 2824 2823 2821 2820 2818 2816 2815 2813 2812 2812 2811 2810 2808 2806 2804 2802 2801 2800 2799 2799 2798 2798 2797 2797 2798 2798 2799 2799 2800
2932 2931 2930 2929 2927 2926 2924 2923 2921 2920 2918 2916 2914 2912 2910 2908 2906 2904 2902 2900 2898 2896 2895 2892 2890 2888 2886 2884 2883 2881 2879 2877 2875 2872 2869 2866 2864 2862 2860 2857 2856 2854 2852 2850 2848 2846 2844 2842 2840 2839 2837 2835 2833 2831 2829 2826 2825 2823 2821 2820 2819 2817 2816 2814 2813 2811 2810 2809 2808 2807 2805 2803 2802 2800 2799 2798 2798 2797 2797 2796 2796 2797 2797 2798 2799 2799
2931 2930 2929 2927 2926 2925 2923 2921 2920 2918 2916 2915 2912 2911 2909 2906 2905 2903 2901 2899 2897 2895 2893 2891 2888 2886 2884 2882 2881 2879 2877 2876 2874 2872 2870 2867 2864 2862 2859 2857 2855 2853 2851 2849 2847 2845 2843 2841 2838 2836 2835 2833 2831 2830 2828 2826 2824 2822 2820 2819 2817 2816 2814 2813 2812 2811 2810 2808 2807 2806 2804 2803 2801 2800 2798 2797 2797 2796 2796 2796 2796 2796 2796 2797 2798 2798
2930 2928 2927 2926 2924 2923 2921 2920 2918 2916 2915 2913 2911 2909 2907 2905 2903 2901 2899 2897 2895 2893 2891 2889 2887 2885 2883 2881 2879 2877 2875 2874 2872 2871 2868 2866 2864 2862 2859 2857 2854 2852 2850 2848 2846 2844 2841 2840 2838 2836 2833 2831 2829 2828 2826 2825 2823 2821 2819 2817 2816 2815 2813 2811 2811 2810 2809 2807 2806 2805 2803 2801 2800 2799 2798 2797 2796 2796 2795 2795 2795 2795 2796 2796 2797 2797
2928 2926 2925 2924 2922 2921 2920 2918 2916 2915 2913 2911 2910 2908 2906 2904 2901 2899 2897 2896 2893 2891 2889 2887 2885 2883 2881 2880 2877 2876 2873 2871 2870 2868 2866 2864 2862 2860 2858 2856 2853 2851 2849 2847 2845 2842 2840 2838 2836 2835 2833 2830 2828 2826 2824 2823 2821 2820 2818 2816 2815 2813 2811 2810 2809 2808 2807 2806 2805 2804 2802 2801 2799 2798 2797 2796 2796 2795 2795 2794 2794 2794 2795 2796 2796 2797
2926 2925 2923 2922 2921 2919 2918 2916 2915 2913 2911 2909 2908 2906 2904 2902 2900 2898 2896 2894 2892 2890 2888 2886 2884 2882 2880 2878 2876 2874 2872 2870 2868 2866 2864 2862 2860 2858 2856 2854 2852 2850 2848 2846 2844 2841 2839 2837 2835 2834 2831 2829 2826 2824 2822 2821 2819 2817 2816 2814 2813 2811 2810 2808 2807 2806 2806 2805 2804 2803 2802 2801 2799 2798 2796 2796 2795 2795 2795 2794 2794 2794 2794 2795 2796 2796
2925 2923 2921 2920 2918 2917 2916 2914 2913 2911 2909 2907 2906 2904 2902 2901 2899 2897 2895 2892 2891 2888 2886 2884 2882 2881 2879 2877 2875 2873 2871 2869 2867 2865 2863 2861 2858 2856 2854 2852 2850 2848 2846 2844 2842 2840 2837 2835 2833 2832 2830 2827 2824 2821 2819 2817 2816 2814 2813 2812 2811 2809 2808 2806 2805 2805 2804 2803 2803 2802 2801 2800 2799 2797 2796 2795 2795 2794 2794 2794 2794 2793 2794 2794 2795 2796
2923 2921 2919 2918 2916 2915 2914 2912 2911 2909 2907 2906 2904 2902 2901 2899 2897 2895 2893 2891 2889 2887 2885 2883 2881 2879 2877 2876 2874 2872 2870 2868 2866 2864 2861 2859 2857 2855 2852 2850 2848 2845 2843 2841 2839 2837 2835 2832 2830 2829 2828 2826 2823 2820 2817 2815 2813 2811 2810 2809 2808 2807 2806 2805 2804 2803 2802 2802 2801 2801 2800 2799 2798 2797 2796 2795 2794 2793 2793 2794 2793 2793 2793 2794 2795 2796